SCTESCBA

Guest
Details From SCTE - El Tepual
To SCBA - Balmaceda
Flight Number -
Tags generated
Created
Modified
Stats Distance 276 nm / 512 km
Max Altitude 31,400 ft / 9,571 m
Waypoints 4
Social Downloads 4
Likes 0
Share VATSIM

Download

Looking for another format? Having issues loading an existing format? Contact us
Advertisement - Login to hide

Notes

Basic altitude profile: - Ascent Rate: 2500ft/min - Ascent Speed: 250kts - Cruise Altitude: 35000ft - Cruise Speed: 420kts - Descent Rate: 1500ft/min - Descent Speed: 250kts Options: - Use NATs: yes - Use PACOTS: yes - Use low airways: yes - Use high airways: yes

Route

SCTE TEN G550 BALNB SCBA

ID Type Via Altitude Latitude Longitude Leg Dist Tot Dist Heading (true) Name
O SCTE APT - 0 ft / 0 m -41.43888˚ -73.09395˚ - 0 nm - El Tepual
TEN NDB - 31,400 ft / 9,571 m -42.92472˚ -72.71528˚ 90 nm 90 nm 169° / 169° CHAITEN NDB
BALNB FIX G550 (AWY-LO) 11,000 ft / 3,353 m -45.91944˚ -71.69833˚ 185 nm 275 nm 167° / 166° -
O SCBA APT - 0 ft / 0 m -45.91602˚ -71.68947˚ 0 nm 276 nm 61° / 61° Balmaceda

Altitude Profile

Advertisement - Login to hide

Weather


0- 5 10 15 20 25 30 35+ Temperature / ° C

Clouds and Precipitation
Forecast for 2017-12-17 12:00 UTC. Updated 44 minutes ago

Ground ~20,000 ft ~40,000 ft Winds

SCTE

Details ICAO SCTE (PMC)
Name El Tepual
Region Chile
Timezone America/Santiago (UTC-3.0)
Stats Elevation 293 ft / 89 m (AMSL)
Location -41.438884° -73.093954°
Runways 1
Magnetic Variation 8.486° E

METAR

SCTE 171200Z 23004KT 9999 FEW030 10/07 Q1025 NOSIG

Decode

TAF

Not found

Departure Runways

ID Width Length Bearing (true) Bearing (mag) Surface Threshold Offset Overrun Length
17 148 ft / 45 m 8,702 ft / 2,652 m 172.00° 163.51° Concrete 0 ft / 0 m 0 ft / 0 m
35 148 ft / 45 m 8,702 ft / 2,652 m 352.00° 343.51° Concrete 0 ft / 0 m 0 ft / 0 m

SCBA

Details ICAO SCBA (BBA)
Name Balmaceda
Region Chile
Timezone America/Santiago (UTC-3.0)
Stats Elevation 1,654 ft / 504 m (AMSL)
Location -45.916025° -71.689470°
Runways 1
Magnetic Variation 9.886° E

METAR

SCBA 171200Z 32026G36KT 9999 FEW030 SCT200 07/M02 Q1017

Decode

TAF

TAF SCBA 171013Z 1712/1812 30020KT CAVOK TX13/1718Z TN03/1810Z BECMG 1713/1714 30025KT BKN030 TEMPO 1715/1722 3T 3000 -TSRA SCT010CB BKN070 BECMG 1802/1806 00000KT 9999 FEW010

Decode

Destination Runways

ID Width Length Bearing (true) Bearing (mag) Surface Threshold Offset Overrun Length
09 148 ft / 45 m 8,213 ft / 2,503 m 89.01° 79.12° Asphalt 0 ft / 0 m 180 ft / 55 m
27 148 ft / 45 m 8,213 ft / 2,503 m 268.99° 259.10° Asphalt 0 ft / 0 m 190 ft / 58 m

Popular Alternatives